This is the latest recevied weather packets stored in our database for station/object WD7OO. If no packets are shown the sender has not sent any weather packets the latest 10 day(s).
| Time | Temp. | Humidity | Pressure | Rain* | Wind** | Luminosity | Snow |
|---|---|---|---|---|---|---|---|
| 1777646252 | 7.78° C | 74% | 1015.6 hPa | 0 mm | - | 697 W/m² | - |
| 1777645950 | 7.78° C | 77% | 1015.5 hPa | 0 mm | - | 691 W/m² | - |
| 1777645647 | 7.78° C | 79% | 1015.5 hPa | 0 mm | - | 668 W/m² | - |
| 1777645343 | 7.22° C | 79% | 1015.6 hPa | 0 mm | - | 651 W/m² | - |
| 1777645038 | 7.22° C | 81% | 1015.5 hPa | 0 mm | - | 619 W/m² | - |
| 1777644736 | 6.67° C | 79% | 1015.4 hPa | 0 mm | - | 571 W/m² | - |
| 1777644433 | 7.22° C | 79% | 1015.6 hPa | 0 mm | - | 567 W/m² | - |
| 1777644129 | 7.22° C | 80% | 1015.5 hPa | 0 mm | - | 578 W/m² | - |
| 1777643825 | 6.11° C | 82% | 1015.5 hPa | 0 mm | - | 524 W/m² | - |
| 1777643523 | 6.11° C | 84% | 1015.8 hPa | 0 mm | - | 612 W/m² | - |
| 1777643220 | 6.11° C | 88% | 1015.5 hPa | 0 mm | - | 332 W/m² | - |
| 1777642916 | 6.11° C | 90% | 1015.6 hPa | 0 mm | - | 216 W/m² | - |
| 1777642613 | 6.11° C | 92% | 1015.3 hPa | 0 mm | - | 490 W/m² | - |
| 1777642310 | 5.56° C | 94% | 1015.4 hPa | 0 mm | - | 233 W/m² | - |
| 1777642006 | 5.56° C | 95% | 1015.1 hPa | 0 mm | - | 387 W/m² | - |
| 1777641702 | 5.56° C | 97% | 1015.3 hPa | 0 mm | - | 338 W/m² | - |
| 1777641397 | 5° C | 98% | 1015.5 hPa | 0 mm | - | 449 W/m² | - |
| 1777641093 | 4.44° C | 98% | 1015.5 hPa | 0 mm | - | 165 W/m² | - |
| 1777640789 | 4.44° C | 99% | 1015.4 hPa | 0 mm | - | 93 W/m² | - |
| 1777640487 | 5° C | 99% | 1015.2 hPa | 0 mm | - | 85 W/m² | - |
| 1777640183 | 4.44° C | 99% | 1015.3 hPa | 0 mm | - | 127 W/m² | - |
| 1777639880 | 3.89° C | 99% | 1015.4 hPa | 0 mm | - | 95 W/m² | - |
| 1777639577 | 4.44° C | 99% | 1015.5 hPa | 0 mm | - | 105 W/m² | - |
| 1777639274 | 3.89° C | 99% | 1015.4 hPa | 0 mm | - | 131 W/m² | - |
| 1777638970 | 3.89° C | 99% | 1015.4 hPa | 0 mm | - | 143 W/m² | - |
* Rain latest hour (hover to see other rain measurements)
** Current wind speed in m/s (hover to see current wind gust speed)